GEFSMA_con_cape1000_150.txt.gz
Probability
87 84 87 81 48 61 68 61 55 65 55 45 39 32 35 35 26 29 42 65 68 68 61 52 39 45 39 35 39 29 26 32 29 29 16 10 10 13 6 10 6 10 10
90 84 84 81 45 48 48 55 52 58 55 39 39 42 32 32 39 35 32 58 58 65 61 52 39 35 42 35 32 26 19 26 19 26 32 13 10 13 10 6 3 3 3
94 77 74 77 61 58 68 68 52 52 48 29 32 29 32 48 39 32 32 39 48 61 68 58 48 48 45 35 42 32 35 35 42 35 26 26 23 26 19 16 13 13 3
84 81 74 68 77 61 58 68 52 42 39 35 39 35 32 42 42 35 23 42 42 45 61 61 58 61 61 58 48 45 39 42 39 45 48 35 32 26 19 19 16 10 10
71 71 68 74 81 71 61 52 48 45 42 45 26 39 29 29 32 29 26 19 35 48 45 61 61 65 55 55 55 45 45 48 42 35 39 35 32 39 32 10 16 6 10
74 71 65 61 61 71 74 74 61 68 52 65 6 13 26 16 26 23 23 19 42 26 23 35 48 45 58 58 55 58 52 52 48 48 42 35 35 42 39 23 10 13 6
71 68 48 61 65 65 68 55 71 58 55 52 26 23 32 13 13 35 23 29 26 29 39 35 45 42 55 42 48 58 55 42 52 52 48 48 42 52 42 29 16 10 10
68 58 65 65 71 74 77 74 84 61 45 48 32 39 39 35 35 3 32 32 19 29 32 35 52 48 45 45 32 42 52 52 42 48 52 52 48 52 45 29 23 13 13
71 65 61 58 71 65 65 77 81 71 55 52 32 35 35 26 23 16 19 32 48 39 39 48 45 55 45 42 42 29 45 55 52 45 52 48 52 48 35 23 16 13 13
68 61 52 61 68 61 71 61 55 74 71 48 45 39 19 19 19 26 10 6 16 32 35 23 16 42 42 42 48 23 45 45 45 52 48 52 42 35 26 29 16 16 13
61 58 52 55 65 65 65 65 68 74 71 61 45 42 32 26 13 19 13 10 6 10 19 29 32 35 42 45 52 23 16 16 23 29 48 42 35 35 26 19 19 19 16
55 58 52 55 58 65 81 74 74 65 68 61 61 55 35 23 16 16 10 13 13 0 16 19 23 26 29 32 19 6 19 3 0 3 3 23 35 26 26 19 16 16 16
52 55 55 55 61 71 71 65 74 65 61 58 61 55 45 19 26 16 19 16 10 3 6 3 10 23 10 23 39 6 13 3 0 0 0 3 3 10 16 16 19 19 19
48 48 55 55 58 61 55 65 61 65 55 58 45 55 55 35 29 23 19 23 16 10 10 3 13 16 19 19 3 0 3 0 0 0 0 0 0 0 0 0 6 13 13
52 45 45 48 48 48 52 52 55 58 58 52 55 55 48 45 35 26 29 29 16 16 10 19 13 13 23 26 0 0 13 0 0 0 0 0 0 0 0 0 0 0 0
52 48 48 48 45 48 52 55 48 45 48 55 52 45 45 35 35 35 23 26 26 29 19 16 23 10 10 0 0 3 10 0 0 0 0 0 0 0 0 0 0 0 0
52 45 39 35 42 45 42 45 39 35 29 29 35 26 35 39 32 19 23 23 32 32 29 13 6 10 16 19 10 10 10 10 0 0 0 0 0 0 0 0 0 0 0
48 42 42 35 32 35 32 35 32 23 26 23 26 26 26 26 32 19 29 13 19 26 26 16 13 10 19 13 16 16 6 3 3 0 0 0 0 0 0 0 0 0 0
45 45 39 39 29 29 35 35 29 32 29 23 29 32 19 23 26 16 19 13 16 6 13 10 16 19 10 3 10 6 3 10 3 0 0 0 0 0 0 0 0 0 0
39 29 26 29 32 23 26 26 26 29 29 23 23 23 19 16 19 29 19 23 3 6 13 6 13 16 10 3 10 6 6 6 6 0 0 0 0 0 0 0 0 0 0
23 29 32 23 23 16 13 16 13 10 19 10 10 13 13 3 6 10 3 19 16 6 3 3 3 13 6 13 10 10 13 6 6 6 3 3 0 0 0 0 0 0 0
26 29 29 19 16 10 6 0 6 6 13 6 6 10 10 3 3 0 0 0 0 6 3 3 6 10 13 10 13 0 10 0 0 3 0 0 0 0 0 0 0 0 0
23 19 16 16 13 10 0 0 0 3 6 6 6 6 6 0 0 3 0 0 0 0 0 6 3 6 10 6 6 3 3 0 0 0 0 0 0 0 0 0 0 0 0
13 13 13 13 13 3 0 0 0 0 0 3 3 6 6 6 0 0 3 0 0 0 0 0 3 6 6 6 6 3 3 0 0 0 0 0 0 0 0 0 0 0 0
23 19 16 10 13 13 0 0 0 0 3 3 3 6 10 10 0 0 0 3 6 3 0 0 0 0 0 0 0 3 0 0 0 0 0 0 0 0 0 0 0 0 0
19 23 6 10 13 19 3 0 0 0 3 3 6 6 0 0 0 0 3 3 3 3 3 0 0 0 0 0 0 0 0 0 0 0 0 0 0 0 0 0 0 0 0

GEFSMA_con_cape1000_156.txt.gz
Probability
97 94 100 100 94 90 90 94 90 84 81 74 52 39 35 45 45 39 45 81 84 71 58 55 45 39 42 32 26 29 26 29 29 29 26 19 19 26 13 10 13 6 3
100 100 100 100 94 94 94 94 87 84 90 87 74 55 45 52 48 52 42 84 84 81 74 55 52 39 32 29 32 26 23 26 26 19 23 23 16 16 13 10 3 10 3
100 100 100 97 97 94 94 94 87 87 74 84 90 81 68 65 65 58 55 48 65 77 74 74 68 58 45 39 26 29 23 26 35 26 29 23 23 16 16 19 10 6 6
94 97 97 97 100 94 94 94 94 94 90 87 84 81 74 81 71 71 71 65 58 29 65 81 68 65 58 48 45 39 35 35 39 35 32 32 26 32 29 19 16 13 6
87 90 97 100 97 94 94 77 87 97 90 84 81 81 81 68 81 42 74 65 68 61 42 55 77 77 68 65 65 65 61 52 48 45 35 32 32 42 45 32 16 13 13
87 87 87 94 97 94 94 94 90 94 90 90 48 35 61 61 61 55 55 42 52 58 52 35 42 45 71 71 68 65 58 61 52 48 42 32 29 35 32 29 26 19 10
84 84 84 90 87 90 90 84 87 87 87 90 77 65 58 48 58 68 61 52 35 48 52 52 42 35 29 71 68 74 58 55 55 48 42 42 39 35 29 26 19 19 16
77 71 87 87 81 84 90 90 94 90 77 74 74 61 55 48 58 16 68 65 45 48 42 42 55 55 45 35 10 58 65 58 48 52 52 48 42 39 35 26 23 26 13
74 84 81 74 74 74 77 84 81 84 71 74 84 61 55 23 39 48 58 58 61 61 52 55 45 52 48 48 35 19 58 65 58 48 48 45 42 32 29 26 19 16 13
81 74 74 77 65 65 74 68 71 77 74 58 71 65 58 42 26 19 29 32 45 42 35 23 26 48 48 55 42 35 42 48 55 52 48 45 48 42 29 26 29 26 16
81 68 71 71 68 68 68 74 81 81 71 65 52 65 61 74 39 19 13 13 26 29 32 35 29 29 32 42 39 39 26 29 32 42 42 45 45 42 35 26 29 26 19
81 74 68 68 68 68 71 68 74 71 61 68 65 61 65 58 39 35 13 16 13 23 26 29 29 32 29 26 26 26 19 6 3 19 23 32 42 39 32 35 23 19 26
74 77 68 68 58 68 61 68 77 71 65 65 65 58 55 48 39 42 26 19 19 16 23 26 26 32 23 19 23 10 16 0 0 0 0 0 6 19 19 19 19 19 16
74 71 68 61 65 55 45 71 65 65 61 58 48 58 52 45 45 42 29 26 6 6 16 13 19 19 16 23 10 0 3 0 0 0 0 0 0 0 3 3 3 3 3
65 71 61 58 55 58 52 65 55 58 61 61 52 45 45 48 42 29 32 39 13 3 3 10 13 26 23 13 0 0 13 0 0 0 0 0 0 0 0 0 0 0 0
74 71 74 68 55 52 58 65 55 55 65 61 52 42 45 32 32 29 26 32 29 10 13 19 13 10 23 10 0 3 13 3 0 0 0 0 0 0 0 0 0 0 0
68 68 58 55 52 55 55 58 45 65 61 52 48 42 32 29 29 29 32 32 19 19 10 10 16 19 19 10 6 10 0 0 0 0 0 0 0 0 0 0 0 0 0
61 58 61 55 48 52 58 55 39 35 39 32 32 35 32 26 26 26 29 19 19 16 16 19 16 10 10 10 10 6 0 0 0 0 0 0 0 0 0 0 0 0 0
65 52 58 55 52 45 48 48 45 29 19 19 19 26 26 29 29 29 23 19 13 10 13 10 6 3 3 3 10 3 3 3 0 0 0 0 0 0 0 0 0 0 0
55 48 48 45 45 42 39 42 39 29 26 13 16 16 16 13 16 16 16 16 13 13 10 6 3 3 6 6 0 0 0 0 0 0 0 0 0 0 0 0 0 0 0
48 55 48 35 29 29 23 29 32 19 26 19 16 13 10 10 6 6 6 13 6 10 6 3 0 3 3 3 0 0 0 0 0 0 0 0 0 0 0 0 0 0 0
48 35 32 26 23 19 3 0 3 19 19 19 16 13 6 3 0 0 0 0 0 6 3 3 0 0 0 0 0 0 0 0 0 0 0 0 0 0 0 0 0 0 0
32 32 29 26 26 23 3 0 0 0 6 6 10 16 0 0 0 0 0 0 0 0 0 0 3 3 3 3 0 0 0 0 0 0 0 0 0 0 0 0 0 0 0
23 23 23 26 29 19 3 0 0 0 0 3 6 6 10 6 0 0 3 0 0 0 0 0 0 0 3 3 3 0 0 0 0 0 0 0 0 0 0 0 0 0 0
26 23 23 23 26 19 6 0 0 0 0 10 10 6 6 3 3 0 0 0 0 3 0 0 0 0 0 0 0 0 0 0 0 0 0 0 0 0 0 0 0 0 0
29 23 23 23 26 26 3 0 0 0 13 13 10 3 3 0 0 0 0 3 0 0 0 0 0 0 0 0 0 0 0 0 0 0 0 0 0 0 0 0 0 0 0

GEFSMA_con_cape1000_162.txt.gz
Probability
26 19 13 16 13 13 13 13 13 6 6 3 6 6 0 0 6 13 26 77 84 81 65 61 52 42 42 35 32 35 39 29 35 39 26 19 19 19 19 13 6 10 13
16 16 13 10 13 13 6 10 3 6 3 3 3 3 0 0 0 6 16 52 74 81 71 58 55 48 39 42 32 35 29 26 35 32 35 29 23 19 16 16 3 3 3
6 6 13 13 16 13 13 3 0 0 0 3 3 0 0 0 3 3 6 19 39 84 81 71 58 48 45 42 39 39 35 29 32 42 35 32 26 23 13 10 10 10 6
16 10 16 13 13 10 3 3 0 0 3 3 0 0 0 0 3 3 3 6 13 23 58 74 71 65 52 52 42 39 35 35 42 35 35 32 29 29 19 13 10 10 10
19 10 10 10 10 13 6 10 0 0 0 0 0 0 0 0 3 3 6 3 6 6 19 35 74 74 58 58 55 45 45 42 35 39 39 32 32 32 26 26 19 16 13
23 13 6 10 10 6 3 0 0 0 0 0 0 0 0 0 3 6 3 0 0 0 0 10 23 48 65 68 68 68 52 55 55 45 45 35 29 29 26 29 19 16 13
26 10 10 6 3 3 0 0 0 0 0 0 0 0 0 0 3 3 3 0 0 0 0 0 3 10 13 61 61 71 65 65 52 48 45 39 32 26 23 19 19 6 6
29 19 6 6 10 6 3 3 0 0 0 0 0 0 0 0 0 3 0 0 0 0 0 0 0 0 3 3 13 48 65 61 61 55 48 48 45 29 26 16 10 10 6
32 10 10 0 10 6 3 3 0 0 0 0 0 0 0 0 0 0 0 0 0 0 0 0 0 0 0 3 3 3 48 58 61 55 48 52 39 16 19 16 13 10 10
29 16 13 6 3 3 3 0 3 0 0 0 0 0 0 0 0 0 0 0 0 0 0 0 0 0 0 0 0 3 16 39 48 52 52 42 39 23 16 13 16 13 10
16 23 16 16 10 6 6 10 3 3 0 0 0 0 0 0 0 0 0 0 0 0 0 0 0 0 0 0 0 3 10 19 26 32 42 45 32 29 23 19 19 19 13
10 16 23 19 16 10 6 6 10 6 3 3 0 0 0 0 0 0 0 0 0 0 0 0 0 0 0 0 0 10 10 6 6 6 13 16 19 16 19 13 16 16 16
10 10 16 13 10 6 6 10 6 10 10 6 3 0 0 0 0 0 0 0 0 0 0 0 0 0 0 0 0 0 3 6 0 3 3 3 3 13 13 16 16 10 13
16 16 13 13 10 6 6 10 10 10 10 10 10 0 0 0 0 0 0 0 0 0 0 0 0 0 0 0 0 0 0 0 0 0 0 0 0 0 0 0 0 6 6
23 19 23 13 16 13 13 13 10 10 10 6 10 10 0 0 0 0 0 0 0 0 0 0 0 0 0 0 0 0 0 0 0 0 0 0 0 0 0 0 0 0 0
26 29 26 16 16 13 10 10 10 13 13 13 10 6 6 6 6 6 6 3 3 3 0 0 0 0 0 0 0 0 0 0 0 0 0 0 0 0 0 0 0 0 0
29 26 26 23 19 16 10 10 10 10 10 10 6 6 3 3 3 3 3 0 0 0 0 0 0 0 0 0 0 0 0 0 0 0 0 0 0 0 0 0 0 0 0
23 19 16 10 10 6 6 6 6 6 3 3 3 3 3 3 3 3 3 3 0 0 0 0 0 0 0 0 0 0 0 0 0 0 0 0 0 0 0 0 0 0 0
26 16 13 13 10 10 3 6 3 0 0 0 3 3 3 3 3 3 3 3 3 3 0 0 0 0 0 0 0 0 0 0 0 0 0 0 0 0 0 0 0 0 0
23 19 16 10 6 3 3 0 0 0 0 0 0 3 3 3 3 3 0 0 0 0 0 0 0 0 0 0 0 0 0 0 0 0 0 0 0 0 0 0 0 0 0
19 16 13 6 3 3 6 6 0 0 0 0 0 0 0 0 0 0 0 0 0 0 0 0 0 0 0 0 0 0 0 0 0 0 0 0 0 0 0 0 0 0 0
16 13 10 13 6 6 0 0 0 0 0 0 0 0 0 0 0 0 0 0 0 0 0 0 0 0 0 0 0 0 0 0 0 0 0 0 0 0 0 0 0 0 0
13 6 3 3 3 3 0 0 0 0 0 0 0 0 0 0 0 0 0 0 0 0 0 0 0 0 0 0 0 0 0 0 0 0 0 0 0 0 0 0 0 0 0
3 3 3 3 3 3 0 0 0 0 0 0 0 0 0 0 0 0 0 0 0 0 0 0 0 0 0 0 0 0 0 0 0 0 0 0 0 0 0 0 0 0 0
0 0 0 0 0 0 0 0 0 0 0 0 0 0 0 0 0 0 0 0 0 0 0 0 0 0 0 0 0 0 0 0 0 0 0 0 0 0 0 0 0 0 0
0 0 0 0 0 0 0 0 0 0 0 0 0 0 0 0 0 0 0 0 0 0 0 0 0 0 0 0 0 0 0 0 0 0 0 0 0 0 0 0 0 0 0

GEFSMA_con_cape1000_168.txt.gz
Probability
16 16 10 13 10 6 10 10 10 10 0 3 6 6 3 6 10 10 35 55 68 71 68 55 39 35 29 32 35 32 35 23 29 29 32 23 26 23 23 13 13 6 6
16 10 10 10 10 10 6 6 10 6 0 0 3 6 3 6 6 16 13 42 65 68 71 61 52 39 35 29 19 29 39 29 35 23 19 23 29 23 23 19 6 10 6
16 10 10 6 10 13 10 10 6 0 0 0 0 6 3 3 3 10 10 26 52 65 68 65 65 58 42 39 29 32 32 35 42 42 29 29 32 26 23 16 6 6 10
6 3 6 6 6 6 10 10 3 0 0 0 0 3 3 0 6 3 3 3 19 26 52 61 65 68 52 48 42 35 32 39 39 35 29 23 29 26 23 16 6 6 3
10 6 3 3 6 6 6 6 3 0 0 0 0 0 0 0 0 0 3 3 6 16 26 35 52 65 48 55 48 45 39 39 39 39 26 23 23 32 16 10 10 6 3
16 6 0 0 3 6 6 0 0 0 0 0 0 0 0 0 0 3 0 3 3 3 10 13 23 32 45 61 58 45 48 45 42 35 29 29 23 29 26 19 13 3 6
10 6 6 3 0 0 0 0 0 0 0 0 0 0 0 0 0 0 3 3 0 0 3 3 3 10 16 26 48 55 55 52 48 42 35 35 26 32 26 16 10 3 0
6 6 6 6 0 0 0 0 0 0 0 0 0 0 0 0 0 0 3 0 0 0 3 3 3 3 3 10 13 19 48 52 42 45 39 35 32 32 23 16 19 3 3
6 10 10 6 0 0 0 0 0 0 0 0 0 0 0 0 0 0 0 3 3 0 0 0 0 0 3 3 6 6 19 29 39 48 39 45 35 23 10 6 16 6 6
6 6 3 6 3 0 0 0 0 0 0 0 0 0 0 0 0 0 0 0 0 0 0 0 0 0 0 0 0 0 6 16 23 35 39 45 19 16 13 10 10 10 6
6 6 6 6 3 0 0 0 0 0 0 0 0 0 0 0 0 0 0 0 0 0 0 0 0 0 0 0 0 0 0 6 16 23 26 26 29 26 16 16 13 10 13
3 3 3 6 6 0 0 0 3 3 3 0 0 0 0 0 0 0 0 0 0 0 0 0 0 0 0 0 0 0 0 0 0 3 3 10 13 16 19 16 13 13 13
6 10 10 3 3 3 3 3 3 3 3 3 0 0 0 0 0 0 0 0 0 0 0 0 0 0 0 0 0 0 0 0 0 0 3 3 3 3 6 10 13 10 6
10 6 10 10 10 6 3 6 6 10 10 6 6 0 0 0 0 0 0 0 3 3 0 0 0 0 0 0 0 0 0 0 0 0 0 0 0 0 0 0 0 0 0
13 13 16 13 16 10 10 6 10 10 10 13 10 13 10 10 3 0 0 0 0 3 3 3 0 0 0 0 0 0 0 0 0 0 0 0 0 0 0 0 0 0 0
10 10 13 13 13 10 6 3 6 10 6 6 3 3 3 3 3 0 0 0 0 0 3 3 0 0 0 0 0 0 0 0 0 0 0 0 0 0 0 0 0 0 0
16 16 10 13 13 6 10 6 6 3 3 3 3 0 0 0 3 3 3 0 0 0 3 3 0 0 0 0 0 0 0 0 0 0 0 0 0 0 0 0 0 0 0
13 13 16 16 13 13 6 3 3 3 3 0 0 0 0 0 0 3 3 3 3 3 0 3 0 0 0 0 0 0 0 0 0 0 0 0 0 0 0 0 0 0 0
13 16 16 13 10 6 6 6 6 0 0 0 0 0 0 0 0 3 3 3 3 3 0 0 0 0 0 0 0 0 0 0 0 0 0 0 0 0 0 0 0 0 0
13 13 16 16 10 6 6 3 0 0 0 0 0 0 0 0 0 0 0 0 0 0 0 0 0 0 0 0 0 0 0 0 0 0 0 0 0 0 0 0 0 0 0
10 10 10 6 3 3 0 0 0 0 0 0 0 0 0 0 0 0 0 0 0 0 0 0 0 0 0 0 0 0 0 0 0 0 0 0 0 0 0 0 0 0 0
10 6 6 3 3 3 3 0 0 0 0 0 0 0 0 0 0 0 0 0 0 0 0 0 0 0 0 0 0 0 0 0 0 0 0 0 0 0 0 0 0 0 0
10 10 6 3 3 0 0 0 0 0 0 0 0 0 0 0 0 0 0 0 0 0 0 0 0 0 0 0 0 0 0 0 0 0 0 0 0 0 0 0 0 0 0
10 6 3 3 3 3 0 0 0 0 0 0 0 0 0 0 0 0 0 0 0 0 0 0 0 0 0 0 0 0 0 0 0 0 0 0 0 0 0 0 0 0 0
3 3 3 3 3 0 0 0 0 0 0 0 0 0 0 0 0 0 0 0 0 0 0 0 0 0 0 0 0 0 0 0 0 0 0 0 0 0 0 0 0 0 0
3 3 0 0 0 0 0 0 0 0 0 0 0 0 0 0 0 0 0 0 0 0 0 0 0 0 0 0 0 0 0 0 0 0 0 0 0 0 0 0 0 0 0

GEFSMA_con_cape1000_174.txt.gz
Probability
52 45 68 71 45 45 52 61 45 48 52 32 19 19 23 23 16 13 32 55 55 48 42 45 42 42 39 42 42 35 29 19 26 35 32 26 23 19 19 19 10 10 13
68 55 68 74 45 52 48 55 52 48 42 39 35 32 29 19 26 29 26 45 52 58 55 48 48 42 39 32 42 39 39 23 23 26 23 26 26 19 16 16 10 6 13
65 58 55 74 52 55 68 65 55 48 42 29 32 26 23 29 19 29 23 39 48 58 61 65 61 52 42 42 45 48 45 32 32 32 26 23 26 26 26 19 16 6 6
68 77 58 52 68 61 55 58 61 35 42 45 42 39 39 52 35 35 35 35 48 42 55 68 65 68 65 52 45 52 52 48 42 39 32 26 26 32 32 19 13 3 6
68 68 65 68 68 52 52 39 35 39 45 45 42 61 48 52 48 29 29 26 35 45 39 61 58 65 58 55 58 52 52 55 52 42 39 23 19 19 16 16 13 10 3
68 71 65 68 52 52 58 65 61 65 61 61 16 23 39 35 45 42 29 35 45 39 39 42 65 52 65 58 55 52 48 48 45 39 39 29 26 23 19 23 13 10 0
74 71 55 81 87 68 71 42 58 45 52 52 45 52 29 23 29 42 32 26 26 26 29 39 39 52 55 45 52 55 48 39 42 39 42 42 35 32 26 23 23 16 6
71 65 74 65 84 84 81 68 68 55 45 45 42 35 35 32 26 10 19 26 23 26 26 16 35 52 42 42 32 29 35 35 45 48 45 35 29 29 29 23 19 13 3
74 81 77 71 77 65 65 77 77 68 52 48 42 35 32 29 26 19 16 19 23 19 13 16 13 32 48 55 58 23 32 32 39 39 48 35 23 23 19 19 23 13 10
77 81 77 77 68 65 71 71 45 61 61 58 52 58 45 35 29 29 13 10 16 23 23 10 6 16 42 48 52 23 26 29 29 32 32 39 32 16 13 13 13 10 6
77 74 74 74 77 71 74 65 74 74 65 55 61 55 48 52 29 32 35 19 19 19 29 29 23 26 42 35 42 29 23 19 16 23 29 32 32 26 19 13 10 13 10
71 65 68 74 74 68 77 74 77 71 71 65 61 55 55 45 48 48 42 39 35 13 26 42 26 32 29 26 19 6 13 3 0 3 13 13 19 32 26 13 10 10 10
65 74 65 74 74 74 74 74 74 71 68 65 65 55 52 52 52 52 45 29 19 19 32 29 23 23 19 26 32 6 6 0 0 0 0 0 3 6 13 10 10 10 13
52 65 65 68 71 71 61 68 55 55 58 55 45 65 58 55 55 52 45 32 16 16 19 10 19 19 19 19 13 0 13 0 0 0 0 0 0 0 0 0 0 3 0
48 52 55 61 61 61 65 71 58 55 48 48 48 48 52 48 45 42 45 35 26 10 16 19 10 16 19 23 3 6 19 6 0 0 0 0 0 0 0 0 0 0 0
55 55 52 52 48 55 58 58 42 48 48 52 55 42 52 42 39 35 32 26 23 10 13 6 19 10 10 3 3 6 16 3 0 0 0 0 0 0 0 0 0 0 0
52 45 45 45 45 52 48 52 39 39 32 29 29 29 32 35 32 29 29 26 16 16 13 13 13 10 13 19 10 13 13 19 19 0 0 0 0 0 0 0 0 0 0
52 45 45 48 42 45 45 45 39 26 26 26 26 16 19 16 26 26 29 19 23 23 16 19 13 3 13 13 19 19 3 3 6 0 0 0 0 0 0 0 0 0 0
52 35 39 45 42 42 48 42 35 26 16 19 10 13 13 13 23 29 35 35 29 19 29 26 10 16 6 6 13 13 6 19 3 0 0 0 0 0 0 0 0 0 0
45 42 35 35 29 32 32 23 23 23 19 16 13 13 13 13 16 19 19 26 29 32 29 23 19 13 16 16 16 6 6 10 3 0 0 0 0 0 0 0 0 0 0
35 32 32 29 26 19 19 16 16 16 16 13 13 13 13 10 10 10 3 16 19 19 23 23 16 13 10 16 16 13 10 10 10 10 0 0 0 0 0 0 0 0 0
32 26 23 23 19 13 10 6 10 16 10 13 13 10 10 10 0 0 0 0 3 6 10 13 10 10 16 10 16 6 10 6 6 6 10 3 0 3 3 0 0 0 0
29 29 23 23 26 10 3 0 0 6 13 6 6 10 6 0 0 3 0 0 0 0 0 3 3 13 13 13 13 13 13 10 10 10 10 6 6 6 6 0 0 0 0
29 26 26 29 26 10 3 0 0 0 10 10 10 10 3 3 3 3 3 3 3 3 0 0 0 0 0 6 6 6 6 6 6 3 6 6 3 3 0 3 0 0 0
29 26 26 26 23 10 3 0 0 6 10 10 10 10 6 3 3 0 3 3 3 3 0 0 0 0 0 0 0 0 3 3 3 3 3 3 0 0 0 0 0 0 0
29 29 26 26 23 10 3 0 0 3 6 6 6 6 0 0 0 0 0 3 6 6 3 0 0 0 0 0 0 0 0 0 0 0 3 0 0 0 0 0 0 3 0

GEFSMA_con_cape1000_180.txt.gz
Probability
94 94 94 90 87 90 90 90 87 84 74 61 58 39 32 32 32 39 39 68 77 74 45 45 39 39 35 45 42 35 29 29 39 42 32 29 19 19 16 16 23 23 23
97 94 94 97 94 84 87 81 84 84 81 81 61 48 45 48 52 48 26 48 71 71 61 48 42 45 42 48 39 42 32 32 39 45 42 29 26 26 19 16 19 19 19
94 90 90 87 87 74 77 84 71 74 84 74 68 52 65 68 55 58 48 42 42 61 68 61 52 52 52 55 48 48 52 48 52 48 48 35 29 29 26 23 13 19 19
84 87 87 84 84 77 81 81 77 77 71 74 74 74 74 84 71 65 65 68 55 26 42 71 71 61 55 58 52 55 55 58 52 52 48 32 29 29 26 26 26 19 16
81 84 81 84 87 77 77 65 77 81 71 77 74 74 74 74 81 48 58 55 48 48 35 52 74 74 58 61 55 48 48 52 52 45 42 35 32 26 23 10 16 16 16
84 81 81 87 84 81 84 81 77 77 77 77 39 45 65 71 71 61 61 52 48 45 45 29 35 48 65 68 65 61 58 55 52 42 42 39 39 35 19 19 13 19 16
77 90 77 84 84 84 87 77 68 74 74 68 68 58 58 58 58 55 58 58 42 35 32 48 42 42 29 58 65 71 65 58 52 48 48 35 35 39 29 19 13 13 13
77 71 84 87 90 94 84 81 71 68 55 65 65 61 55 48 55 19 48 52 48 45 39 32 48 52 45 26 10 45 55 52 55 39 39 42 39 32 23 23 23 13 10
84 84 87 84 90 84 74 71 65 65 61 65 68 61 45 35 48 45 45 42 39 45 45 32 42 52 42 42 29 6 48 45 45 39 42 39 32 29 23 23 19 13 10
87 84 74 77 84 84 84 71 65 61 58 58 65 71 68 48 29 19 32 26 42 45 39 23 19 39 35 42 32 29 26 32 32 39 42 45 42 23 16 19 16 19 10
84 77 77 77 74 71 71 68 71 71 68 65 68 65 65 65 45 42 16 23 26 39 48 42 29 29 32 42 26 29 26 16 19 32 29 39 42 32 23 23 23 19 19
81 71 74 77 77 71 71 74 74 68 71 58 65 65 68 58 58 48 35 26 13 16 32 39 23 26 29 23 23 16 13 0 0 3 10 19 26 26 26 23 19 26 19
74 77 71 74 74 74 71 68 68 68 65 65 68 65 65 61 61 58 42 29 23 26 32 29 23 29 16 13 16 6 10 0 0 0 0 0 3 10 13 13 23 19 19
74 71 71 74 71 71 71 68 65 65 61 68 65 71 68 55 65 55 45 39 10 16 35 13 23 19 13 13 13 6 6 0 0 0 0 0 0 3 0 0 3 3 6
61 65 68 68 68 71 71 65 61 65 68 65 58 55 58 48 48 52 48 35 13 3 3 13 6 16 10 13 6 3 16 0 0 0 0 0 0 0 0 0 0 0 0
74 77 68 61 65 61 58 55 55 55 55 58 58 58 58 45 32 45 42 39 23 13 3 13 13 6 3 0 3 10 10 3 0 0 0 0 0 0 0 0 0 0 0
65 65 61 65 61 55 55 52 52 55 55 55 48 42 35 32 32 29 32 26 23 19 6 10 3 6 10 10 3 13 10 13 3 0 0 0 0 0 0 0 0 0 0
61 61 58 61 55 48 45 39 45 39 39 35 23 23 19 23 26 26 23 19 23 23 6 6 6 3 13 16 16 16 6 6 6 0 0 0 0 0 0 0 0 0 0
55 61 61 55 52 39 32 32 29 35 26 23 26 26 23 19 16 19 23 19 19 13 19 10 3 3 6 6 10 13 3 6 3 0 0 0 0 0 0 0 0 0 0
55 55 52 45 52 39 29 32 32 23 23 16 19 23 19 16 16 19 10 16 13 13 16 10 3 0 0 3 6 3 3 3 6 0 0 0 0 0 0 0 0 0 0
52 48 48 39 42 29 29 26 29 23 23 19 16 13 10 6 3 6 3 10 6 10 6 6 3 6 6 6 3 3 0 3 0 0 0 0 0 0 0 0 0 0 0
55 55 45 39 35 23 10 6 10 23 16 16 13 10 10 6 0 0 0 0 0 0 0 3 3 3 3 3 6 0 0 0 0 6 0 0 0 0 0 0 0 0 0
52 52 42 39 29 16 6 3 3 16 16 13 13 13 3 3 0 3 0 0 0 0 0 0 3 3 0 0 0 0 0 0 0 0 3 0 3 3 0 0 0 0 0
48 45 42 35 35 16 6 3 0 6 16 16 13 10 6 3 3 3 3 3 3 0 0 0 0 0 0 0 0 0 0 0 0 0 0 0 0 3 0 6 0 0 0
45 42 39 39 26 13 3 3 0 10 13 10 13 6 6 6 3 0 0 3 3 3 3 0 0 0 0 0 0 0 0 0 0 0 0 0 0 3 0 0 0 0 0
45 45 42 26 26 19 3 3 0 3 10 10 6 6 3 3 3 0 0 3 3 3 3 3 0 0 0 0 0 0 0 0 0 0 0 0 0 0 0 0 0 0 0

GEFSMA_con_cape1000_186.txt.gz
Probability
6 10 10 10 10 6 3 6 3 0 0 3 0 3 0 0 0 3 6 71 84 87 61 58 52 48 42 35 42 35 32 32 29 35 29 23 23 16 26 26 29 23 23
16 13 10 6 6 10 3 3 0 0 0 0 0 0 3 3 0 0 0 35 77 84 71 68 55 61 58 55 48 45 39 29 42 35 32 29 29 23 19 16 29 26 32
10 6 13 10 10 6 3 3 3 0 0 0 3 3 0 0 0 0 0 0 19 81 77 71 68 55 65 61 55 52 55 45 45 48 35 32 29 29 26 19 26 23 23
10 6 10 16 13 10 3 0 0 0 0 0 0 0 0 0 0 0 0 0 0 6 42 68 74 68 58 61 52 48 48 55 55 48 35 35 35 29 29 26 23 19 23
13 10 13 10 13 6 3 6 0 0 0 0 0 0 0 0 0 0 0 0 0 0 3 26 77 71 61 58 58 52 52 52 55 48 29 29 29 32 32 26 19 16 13
23 16 19 13 10 6 3 6 0 0 0 0 0 0 0 0 0 0 0 0 0 0 0 3 16 32 68 68 68 58 48 48 52 48 42 32 29 32 23 23 16 16 10
19 16 23 16 13 6 3 3 3 0 0 0 0 0 0 0 0 0 0 0 0 0 0 0 0 0 6 52 61 58 58 52 45 45 42 32 29 19 16 10 13 13 13
23 32 16 13 13 10 3 3 6 6 0 0 0 0 0 0 0 0 0 0 0 0 0 0 0 0 0 0 3 45 58 55 48 42 35 32 32 23 16 13 10 10 10
23 26 16 16 6 6 10 6 10 6 10 3 0 0 0 0 0 0 0 0 0 0 0 0 0 0 0 0 0 0 42 52 48 45 45 42 29 23 16 16 10 3 6
32 39 26 16 16 13 13 6 10 10 10 10 3 0 0 0 0 0 0 0 0 0 0 0 0 0 0 0 0 0 0 26 48 45 45 45 32 23 13 13 10 6 6
32 35 39 35 29 16 16 6 10 6 10 10 3 3 3 0 0 0 0 0 0 0 0 0 0 0 0 0 0 0 0 3 13 29 29 32 26 26 19 23 13 6 10
23 32 32 35 35 26 19 19 10 10 13 6 3 3 3 3 3 0 0 0 0 0 0 0 0 0 0 0 0 0 0 0 0 0 0 3 16 23 23 23 19 16 16
26 26 29 32 32 26 26 23 10 10 10 6 3 3 6 6 3 3 3 0 0 0 0 0 0 0 0 0 0 0 0 0 0 0 0 0 0 0 13 16 16 19 13
32 26 26 19 26 23 26 16 16 13 10 6 3 3 3 3 3 3 3 0 0 0 0 0 0 0 0 0 0 0 0 0 0 0 0 0 0 0 0 0 0 0 3
32 29 29 29 26 23 23 19 16 16 10 6 10 3 0 3 0 0 0 0 0 0 0 0 0 0 0 0 0 0 0 0 0 0 0 0 0 0 0 0 0 0 0
26 23 23 26 23 23 16 16 16 6 6 3 0 0 0 0 0 0 0 0 0 0 0 0 0 0 0 0 0 0 0 0 0 0 0 0 0 0 0 0 0 0 0
23 26 23 23 16 13 13 10 13 6 6 3 3 3 3 0 0 0 0 0 0 0 0 0 0 0 0 0 0 0 0 0 0 0 0 0 0 0 0 0 0 0 0
26 23 16 16 16 13 13 10 10 6 3 6 3 3 3 3 0 0 0 0 0 0 0 0 0 0 0 0 0 0 0 0 0 0 0 0 0 0 0 0 0 0 0
23 19 16 13 16 10 10 10 6 6 6 6 3 3 0 0 0 0 0 0 0 0 0 0 0 0 0 0 0 0 0 0 0 0 0 0 0 0 0 0 0 0 0
23 23 19 16 23 13 10 6 6 6 6 6 6 3 0 0 0 0 0 0 0 0 0 0 0 0 0 0 0 0 0 0 0 0 0 0 0 0 0 0 0 0 0
23 26 29 26 16 13 10 6 3 3 0 3 3 0 0 0 0 0 0 0 0 0 0 0 0 0 0 0 0 0 0 0 0 0 0 0 0 0 0 0 0 0 0
19 19 19 16 13 13 13 10 6 6 3 3 0 0 0 0 0 0 0 0 0 0 0 0 0 0 0 0 0 0 0 0 0 0 0 0 0 0 0 0 0 0 0
23 23 19 13 10 10 6 3 0 3 6 3 3 0 0 0 0 0 0 0 0 0 0 0 0 0 0 0 0 0 0 0 0 0 0 0 0 0 0 0 0 0 0
23 16 16 13 10 6 6 0 0 0 0 3 3 3 3 0 0 0 0 0 0 0 0 0 0 0 0 0 0 0 0 0 0 0 0 0 0 0 0 0 0 0 0
13 13 13 6 6 6 3 0 0 0 0 0 0 0 0 3 0 0 0 0 0 0 0 0 0 0 0 0 0 0 0 0 0 0 0 0 0 0 0 0 0 0 0
10 10 13 10 10 6 3 0 0 0 0 0 0 0 0 0 0 0 0 0 0 0 0 0 0 0 0 0 0 0 0 0 0 0 0 0 0 0 0 0 0 0 0

GEFSMA_con_cape1000_192.txt.gz
Probability
3 3 3 6 10 6 6 6 6 3 0 0 3 6 3 3 3 6 6 29 71 74 61 48 48 45 42 39 29 26 23 26 26 35 29 19 23 19 26 23 23 23 23
6 3 6 3 6 6 3 3 3 3 0 0 0 3 0 0 3 6 6 19 52 74 68 58 48 48 48 45 35 32 23 23 23 35 32 23 23 23 19 26 23 26 26
6 3 6 3 6 3 3 3 0 0 0 0 0 6 3 0 0 0 3 6 23 55 68 68 61 52 52 55 45 42 39 39 32 35 35 29 26 23 19 19 26 26 26
6 3 3 3 0 0 3 3 0 0 0 0 0 0 3 0 0 0 3 3 10 16 42 58 65 71 52 48 58 45 45 48 48 39 29 29 26 26 23 19 19 19 16
0 0 3 3 3 0 0 6 0 0 0 0 0 3 0 0 0 0 0 0 0 0 3 13 61 68 55 52 55 52 52 45 48 35 29 19 23 19 19 16 16 16 16
13 3 6 3 3 3 3 3 0 0 0 0 0 0 0 0 0 0 0 0 0 0 0 0 13 35 48 61 61 52 45 45 48 42 29 29 19 13 13 13 13 13 13
10 10 6 3 3 3 3 3 3 3 0 0 0 0 0 0 0 0 0 0 0 0 0 0 3 6 10 16 42 48 48 48 45 42 35 39 32 26 13 6 10 6 6
13 19 13 6 3 3 3 3 3 3 0 0 0 0 0 0 0 0 0 0 0 0 0 0 0 0 0 3 0 10 42 48 45 42 45 45 39 26 19 13 6 6 6
16 16 13 10 6 3 3 3 3 0 0 0 0 3 3 0 0 0 0 0 0 0 0 0 0 0 0 0 0 0 10 29 42 45 39 35 35 32 19 16 13 3 6
13 16 13 10 6 6 0 0 0 0 0 3 0 0 3 3 3 3 0 0 0 0 3 0 0 3 3 0 0 0 0 6 19 35 39 39 35 32 26 16 13 13 0
13 10 23 16 10 6 6 3 3 3 3 3 3 3 3 3 0 0 3 3 3 3 0 3 0 0 0 0 0 0 0 0 0 3 32 35 32 26 26 23 23 19 10
13 10 19 16 13 10 13 6 3 6 3 3 3 3 3 3 3 3 3 3 0 0 0 0 0 0 0 0 0 0 0 0 0 0 0 0 10 10 16 16 16 23 23
13 13 16 19 19 19 19 10 6 6 3 3 3 3 3 3 3 3 3 3 3 0 0 0 0 0 0 0 0 0 0 0 0 0 0 0 0 0 3 10 13 13 10
16 16 19 23 23 19 19 6 6 3 3 3 3 3 3 3 0 0 0 0 0 0 0 0 0 0 0 0 0 0 0 0 0 0 0 0 0 0 0 0 0 0 3
19 16 16 16 13 13 13 6 10 3 3 3 3 0 0 0 0 0 0 0 0 0 0 0 0 0 0 0 0 0 0 0 0 0 0 0 0 0 0 0 0 0 0
16 13 13 13 13 13 10 10 6 6 0 0 0 0 0 0 0 0 0 0 0 0 0 0 0 0 0 0 0 0 0 0 0 0 0 0 0 0 0 0 0 0 0
16 13 10 13 13 13 6 3 6 3 3 3 3 3 3 3 0 0 0 0 0 0 0 0 0 0 0 0 0 0 0 0 0 0 0 0 0 0 0 0 0 0 0
13 13 13 10 10 10 3 6 6 6 3 3 3 3 3 3 0 0 0 0 0 0 0 0 0 0 0 0 0 0 0 0 0 0 0 0 0 0 0 0 0 0 0
16 16 13 10 10 6 3 3 3 6 6 3 3 0 0 0 0 0 0 0 0 0 0 0 0 0 0 0 0 0 0 0 0 0 0 0 0 0 0 0 0 0 0
16 19 13 10 10 6 6 3 3 3 3 0 0 0 0 0 0 0 0 0 0 0 0 0 0 0 0 0 0 0 0 0 0 0 0 0 0 0 0 0 0 0 0
19 16 13 10 10 6 6 3 3 3 3 3 0 0 0 0 0 0 0 0 0 0 0 0 0 0 0 0 0 0 0 0 0 0 0 0 0 0 0 0 0 0 0
13 10 10 10 6 6 3 0 0 3 3 3 3 0 0 0 0 0 0 0 0 0 0 0 0 0 0 0 0 0 0 0 0 0 0 0 0 0 0 0 0 0 0
13 10 10 10 6 6 0 0 0 0 3 0 3 3 3 0 0 0 0 0 0 0 0 0 0 0 0 0 0 0 0 0 0 0 0 0 0 0 0 0 0 0 0
13 10 10 10 6 6 0 0 0 0 3 3 0 0 0 0 0 0 0 0 0 0 0 0 0 0 0 0 0 0 0 0 0 0 0 0 0 0 0 0 0 0 0
13 10 10 10 6 6 0 0 0 0 3 0 0 0 0 0 0 0 0 0 0 0 0 0 0 0 0 0 0 0 0 0 0 0 0 0 0 0 0 0 0 0 0
10 10 10 10 6 6 3 0 0 0 0 0 0 0 0 0 0 0 0 0 0 0 0 0 0 0 0 0 0 0 0 0 0 0 0 0 0 0 0 0 0 0 0

GEFSMA_con_cape1000_198.txt.gz
Probability
65 58 74 71 52 45 55 68 52 35 35 35 16 23 23 39 35 23 39 61 58 52 52 45 48 52 48 48 45 32 35 32 35 35 32 29 16 10 16 16 19 23 16
71 52 77 74 58 48 48 52 39 55 42 29 23 29 29 19 32 35 32 55 58 68 58 58 52 52 48 48 42 45 39 35 26 35 32 26 23 13 10 16 16 19 16
87 74 61 71 65 68 71 65 48 48 55 35 35 23 35 39 29 29 29 29 45 52 61 65 61 61 55 58 52 48 42 39 35 42 42 23 16 19 23 19 19 23 23
77 84 68 61 81 61 65 65 71 58 45 45 42 29 32 42 29 29 26 32 39 35 45 58 65 58 65 55 55 52 55 48 39 42 42 29 26 19 16 16 13 19 19
74 77 77 81 81 68 65 55 48 55 58 45 32 48 32 42 48 29 29 32 39 45 48 58 61 61 58 55 52 52 52 55 45 39 39 35 23 16 19 10 10 10 13
65 71 71 81 74 68 71 77 74 77 74 68 23 32 39 42 45 39 32 32 39 32 39 32 58 55 55 55 58 55 52 48 48 39 35 32 26 26 13 16 10 10 6
65 71 52 68 74 71 65 58 55 58 61 65 58 55 52 35 35 39 35 39 32 35 42 48 55 58 65 42 42 58 52 42 52 52 45 42 29 29 32 16 10 10 6
65 55 65 52 61 74 74 71 68 58 48 48 48 52 39 23 45 16 29 52 42 39 32 32 39 55 55 58 42 32 39 42 48 42 45 42 42 42 26 29 13 10 10
65 58 61 58 58 55 74 71 61 55 48 45 45 39 35 19 26 19 32 32 39 42 35 26 29 39 45 52 52 26 35 39 35 35 39 48 45 35 35 23 23 19 10
65 58 61 58 58 55 61 55 52 61 58 48 52 45 39 35 29 19 19 19 26 32 35 35 29 32 39 42 48 23 10 16 23 29 39 35 39 35 35 32 29 29 13
61 58 58 61 55 55 52 52 55 55 55 45 42 39 32 39 32 39 23 26 16 26 29 32 29 32 35 35 39 26 6 3 6 13 19 26 26 23 16 16 26 19 19
71 55 58 61 61 61 58 55 55 55 65 52 58 42 39 32 29 29 26 29 29 23 29 26 19 29 35 35 29 0 3 0 0 0 0 10 13 13 10 10 10 10 13
61 68 55 55 61 65 65 65 52 52 58 55 48 42 45 39 35 35 29 19 19 13 29 23 23 19 19 26 32 0 0 0 0 0 0 0 0 0 10 6 10 10 10
52 61 58 61 61 61 48 52 52 45 45 42 29 45 55 42 32 29 29 26 19 16 26 23 13 13 19 19 19 0 13 0 0 0 0 0 0 0 0 0 0 0 6
58 58 61 58 61 58 61 61 58 52 52 35 29 35 35 32 29 26 23 19 23 13 23 23 23 13 19 29 3 10 19 0 0 0 0 0 0 0 0 0 0 0 0
68 68 61 55 52 55 58 65 58 55 55 52 39 35 35 23 29 29 13 16 26 23 19 13 26 3 13 3 0 10 10 0 0 0 0 0 0 0 0 0 0 0 0
65 68 68 58 52 52 52 52 42 42 39 32 29 29 32 32 29 26 26 16 16 16 23 19 16 6 13 16 10 16 6 10 10 0 0 0 0 0 0 0 0 0 0
61 61 58 55 48 45 42 39 42 35 39 42 29 26 23 19 23 29 29 19 26 23 19 19 13 10 13 13 10 10 3 0 6 0 0 0 0 0 0 0 0 0 0
61 55 58 48 48 48 42 42 39 39 39 39 32 35 32 19 19 16 19 13 13 10 23 23 26 13 6 10 6 0 0 3 0 0 0 0 0 0 0 0 0 0 0
55 58 55 48 45 42 39 35 35 35 32 32 35 29 26 19 19 13 13 13 10 13 16 23 19 13 10 6 3 3 0 0 3 0 0 0 0 0 0 0 0 0 0
55 52 45 39 39 32 26 26 29 32 32 29 26 23 16 6 3 10 6 10 6 6 10 19 13 6 6 10 6 6 3 3 0 0 0 0 0 0 0 0 0 0 0
45 45 45 39 26 23 16 13 19 26 29 29 29 16 13 10 6 0 0 0 3 6 10 13 10 10 6 6 6 6 6 3 3 3 3 0 3 3 0 0 0 0 0
52 45 42 39 32 19 16 3 3 23 16 26 26 19 10 10 3 6 0 0 0 0 0 10 6 10 10 6 3 3 3 3 3 3 0 0 3 3 0 0 0 0 0
52 42 39 32 29 16 10 3 0 10 16 19 23 23 13 13 6 10 6 3 0 0 0 0 6 6 6 6 3 3 3 3 3 3 3 3 0 0 0 3 0 0 0
52 42 35 26 29 13 10 0 0 10 19 16 16 16 10 13 6 0 6 6 3 3 0 0 0 0 0 0 0 0 0 0 0 0 0 0 0 0 0 3 0 0 0
42 42 32 29 23 23 10 0 0 13 16 16 19 19 6 6 3 0 0 6 6 6 6 0 0 0 0 0 0 0 0 0 0 0 0 0 0 0 0 0 0 0 0

GEFSMA_con_cape1000_204.txt.gz
Probability
81 84 84 87 81 87 90 87 74 71 61 61 39 45 45 35 35 35 35 61 65 68 65 55 55 52 45 48 39 35 35 29 35 35 29 26 23 19 16 16 13 19 23
84 87 90 87 94 87 97 94 84 81 68 65 61 65 61 55 58 48 26 52 58 65 61 61 58 55 45 42 45 48 48 39 42 48 42 39 32 23 13 19 16 13 13
87 90 90 94 97 97 90 90 87 77 81 68 68 61 61 61 68 58 48 42 39 52 58 61 65 61 55 45 42 45 42 45 52 52 45 42 39 29 23 19 26 19 16
87 87 87 87 94 90 90 94 87 81 81 81 71 68 68 74 65 68 58 61 52 29 35 61 71 71 65 68 58 55 48 52 48 52 45 39 39 32 32 26 19 16 16
90 90 90 87 87 97 94 74 84 90 84 84 52 58 65 71 77 45 45 42 52 65 35 42 74 71 61 65 61 58 61 55 48 48 42 45 35 32 23 23 19 16 13
90 90 94 94 94 94 90 87 87 90 90 81 42 32 58 61 58 58 39 45 48 48 52 32 39 45 68 68 65 55 55 55 52 52 45 39 35 35 29 19 19 16 10
74 87 87 90 84 87 84 81 87 84 77 74 55 48 32 45 48 55 55 45 39 42 42 58 52 52 29 61 58 58 58 52 55 48 48 48 42 35 29 23 16 16 10
77 61 84 87 90 90 81 81 81 84 74 65 74 45 42 32 35 32 48 52 45 45 45 42 45 48 48 35 13 35 52 52 52 48 52 48 48 42 35 35 19 16 13
77 74 81 77 81 77 74 81 81 77 74 68 61 55 42 26 39 29 42 42 48 45 35 39 35 42 32 35 19 10 32 39 35 42 45 42 29 29 35 32 32 19 19
77 71 74 74 74 81 77 74 74 74 71 65 65 68 65 52 39 32 26 29 42 42 42 29 26 35 29 29 23 16 26 32 39 32 32 29 26 19 19 23 26 29 32
74 71 77 77 71 74 74 74 68 71 71 65 61 55 55 52 26 26 23 19 29 32 35 32 29 35 35 26 26 19 13 13 19 23 23 23 23 23 16 13 10 10 16
81 68 74 77 81 77 77 74 74 68 71 65 65 65 58 39 39 32 26 19 13 19 23 23 29 42 29 26 23 13 6 0 0 6 13 16 16 16 16 10 6 6 10
77 81 74 77 74 68 68 71 65 61 61 58 61 58 58 48 48 39 29 19 13 16 26 23 23 29 19 16 16 10 6 0 0 0 0 0 3 10 6 6 6 6 6
81 81 81 74 71 65 61 71 65 65 61 61 48 55 58 48 52 42 39 29 16 13 23 23 26 23 26 16 19 3 6 0 3 0 0 0 0 0 0 0 0 0 0
77 77 74 68 71 65 68 65 65 61 65 61 58 48 45 39 48 45 32 29 19 13 6 10 26 16 19 26 6 0 13 0 0 0 0 0 0 0 0 0 0 0 0
81 71 71 71 68 68 65 68 61 61 61 55 55 42 45 35 39 39 39 29 29 19 16 13 16 16 19 10 0 10 10 0 0 0 0 0 0 0 0 0 0 0 0
81 74 71 68 68 71 61 58 48 52 48 48 45 39 42 35 35 32 26 23 19 19 19 19 23 19 13 10 6 10 13 6 6 0 0 0 0 0 0 0 0 0 0
74 74 68 68 65 61 58 55 52 52 42 42 48 45 39 32 29 32 23 19 19 19 16 16 16 13 10 13 3 13 3 3 10 0 0 0 0 0 0 0 0 0 0
74 74 71 65 61 58 61 52 52 45 45 48 45 42 35 32 29 23 26 13 16 10 13 13 16 16 6 3 6 3 3 6 0 0 0 0 0 0 0 0 0 0 0
77 68 65 61 61 55 61 48 39 39 42 42 35 35 29 29 26 23 23 19 13 13 10 10 13 10 10 6 6 0 0 3 0 0 0 0 0 0 0 0 0 0 0
74 68 61 55 52 45 39 35 35 35 39 35 35 35 32 23 19 10 10 13 10 10 10 10 10 6 3 3 0 0 0 0 0 0 0 0 0 0 0 0 0 0 0
68 68 58 55 48 35 16 16 26 32 35 39 42 39 26 19 6 3 3 3 3 3 3 3 3 6 6 3 0 0 0 0 0 0 0 0 0 0 0 0 0 0 0
68 65 61 58 52 35 16 13 13 23 29 39 39 39 26 16 6 13 3 0 0 0 3 3 3 0 0 3 3 0 0 0 0 0 0 0 0 0 0 0 0 0 0
71 65 61 58 55 26 13 10 3 16 26 32 32 29 32 26 16 13 10 6 6 3 0 0 3 3 0 3 3 3 3 0 3 0 0 0 0 0 0 0 0 0 0
68 68 61 58 45 29 13 10 3 19 26 29 29 26 23 23 16 6 6 6 6 3 0 0 0 0 0 0 0 0 0 0 0 0 0 0 0 0 0 0 0 0 0
61 68 58 52 39 35 19 10 3 10 26 26 23 23 16 13 13 6 6 6 6 3 3 0 0 0 0 0 0 0 0 0 0 0 0 0 0 0 0 0 0 0 0

GEFSMA_con_cape1000_210.txt.gz
Probability
6 6 3 3 6 6 3 3 6 0 0 0 0 0 0 0 3 0 3 58 71 77 58 55 52 48 52 42 42 35 35 35 39 45 35 23 26 16 16 13 23 23 16
13 13 3 6 6 3 3 3 3 3 3 3 3 3 0 0 0 3 0 19 74 74 68 58 55 48 48 55 52 42 42 35 42 39 35 35 29 23 16 16 16 10 13
13 13 6 13 13 6 6 3 0 0 0 0 0 0 0 0 3 0 0 6 16 61 61 65 68 61 55 55 55 52 48 45 48 45 42 39 35 29 26 19 13 13 19
16 13 10 13 10 10 6 0 0 0 0 0 0 0 0 0 3 0 0 0 3 13 35 58 61 65 65 55 61 52 45 48 48 48 48 39 29 26 23 26 26 19 13
23 10 13 10 10 10 6 6 6 6 3 0 0 0 3 0 0 0 0 0 0 0 3 23 61 65 55 58 58 52 52 42 45 42 35 29 35 29 16 19 23 13 10
29 19 13 16 13 6 10 3 6 6 3 3 3 3 0 3 3 0 0 0 0 0 0 0 10 29 55 61 61 55 52 52 45 39 39 35 29 32 23 23 23 13 10
23 19 19 19 10 13 6 0 0 3 3 0 0 3 3 0 0 3 3 3 3 3 3 3 3 6 6 45 55 55 48 45 42 42 45 32 29 32 32 26 19 16 13
29 29 19 23 16 10 10 6 6 10 13 10 10 3 3 0 0 3 3 3 3 6 6 6 0 6 6 6 6 32 42 45 45 45 42 39 35 29 26 26 16 13 13
32 26 26 19 26 23 13 16 10 13 13 3 3 3 3 3 3 3 3 3 3 3 3 3 0 0 0 0 6 10 42 45 35 32 35 29 29 29 16 23 19 13 6
32 29 29 26 23 16 19 23 16 10 10 3 3 3 3 3 3 3 3 3 3 3 3 3 3 0 0 0 0 0 3 23 29 29 35 32 29 29 26 16 13 16 10
29 39 42 26 29 32 29 26 26 19 6 3 3 3 3 3 3 3 3 3 3 3 3 0 0 0 3 0 0 0 0 6 16 23 26 26 26 29 23 16 16 10 6
29 39 35 26 29 35 29 26 29 29 10 6 3 3 3 3 3 3 3 3 3 3 3 0 0 0 0 0 0 0 0 0 0 3 6 10 19 16 23 13 13 10 6
35 35 39 32 32 32 32 29 23 26 19 13 6 3 3 3 3 3 3 3 3 3 6 3 0 0 0 0 0 0 0 0 0 0 0 0 6 10 10 10 13 10 10
42 39 35 35 32 35 35 32 32 29 26 23 19 16 6 6 3 3 3 3 3 3 0 0 0 0 0 0 0 0 0 0 0 0 0 0 0 0 0 0 0 0 0
35 39 39 35 35 39 39 32 29 26 26 19 16 16 10 3 3 3 3 3 3 3 3 0 0 0 0 0 0 0 0 0 0 0 0 0 0 0 0 0 0 0 0
35 35 35 29 39 39 35 35 32 26 23 19 16 13 13 10 6 3 3 3 3 3 3 0 0 0 0 0 0 0 0 0 0 0 0 0 0 0 0 0 0 0 0
39 35 32 32 35 35 32 32 32 32 26 23 19 19 13 10 6 3 3 3 3 3 3 3 0 0 0 0 0 0 0 0 0 0 0 0 0 0 0 0 0 0 0
39 39 42 35 39 32 29 29 29 29 26 26 19 16 13 13 10 6 3 3 3 3 3 3 0 0 0 0 0 0 0 0 0 0 0 0 0 0 0 0 0 0 0
39 39 42 32 32 32 29 29 26 29 26 26 23 13 13 10 10 6 3 3 3 3 3 0 0 0 0 0 0 0 0 0 0 0 0 0 0 0 0 0 0 0 0
35 35 35 42 32 29 26 26 29 29 29 23 16 13 10 6 6 6 6 6 3 3 3 0 0 0 0 0 0 0 0 0 0 0 0 0 0 0 0 0 0 0 0
35 35 32 35 29 23 29 26 29 26 23 19 16 16 13 6 6 6 6 6 3 3 3 0 0 0 0 0 0 0 0 0 0 0 0 0 0 0 0 0 0 0 0
29 32 35 35 32 26 23 19 23 23 16 16 16 19 19 10 6 6 6 6 6 6 0 0 0 0 0 0 0 0 0 0 0 0 0 0 0 0 0 0 0 0 0
29 26 26 29 29 26 16 16 13 13 16 16 16 16 13 13 6 6 6 0 0 3 0 3 0 0 0 0 0 0 0 0 0 0 0 0 0 0 0 0 0 0 0
32 32 32 26 23 23 13 6 0 10 10 13 16 16 13 13 6 6 3 3 6 0 0 0 0 0 0 0 0 0 0 0 0 0 0 0 0 0 0 0 0 0 0
39 29 32 26 23 16 6 6 0 0 3 6 6 13 10 10 6 3 3 3 3 3 0 0 0 0 0 0 0 0 0 0 0 0 0 0 0 0 0 0 0 0 0
32 29 26 23 16 10 6 3 0 0 0 3 6 10 10 10 10 3 3 3 3 3 0 0 0 0 0 0 0 0 0 0 0 0 0 0 0 0 0 0 0 0 0

GEFSMA_con_cape1000_216.txt.gz
Probability
6 6 6 6 6 6 3 0 0 3 0 0 0 0 3 0 3 0 16 35 68 68 61 58 55 55 55 39 39 35 35 35 32 29 29 26 29 19 10 10 16 16 19
6 6 6 6 10 10 3 0 0 0 0 0 3 6 3 3 3 3 6 16 55 61 58 52 52 48 52 58 45 42 39 29 39 39 42 39 39 26 16 10 16 13 19
3 3 3 3 3 0 0 0 0 0 0 0 6 6 3 3 10 3 3 6 13 42 55 58 58 48 42 45 48 42 42 42 45 42 39 39 32 29 29 26 16 13 16
6 3 6 10 0 0 0 0 0 0 0 0 0 3 3 3 3 6 3 3 3 6 23 48 52 52 48 48 55 52 45 45 48 45 42 39 29 23 26 19 16 23 16
16 10 10 10 3 3 3 3 3 3 0 0 3 3 3 3 6 3 3 0 0 0 3 6 42 55 42 42 42 45 48 48 45 32 35 35 29 23 26 23 16 13 10
19 13 13 6 6 6 3 0 3 0 0 6 0 3 0 0 3 3 3 3 3 0 0 0 6 16 26 42 52 48 52 48 45 42 32 19 23 26 19 23 16 13 10
19 13 6 0 0 3 0 3 3 0 6 3 0 0 0 0 0 0 3 3 3 3 6 3 10 6 13 23 29 35 35 45 39 42 35 29 23 23 19 13 10 6 10
16 16 6 3 0 0 3 3 0 0 6 0 3 0 3 0 0 0 3 3 3 3 3 3 6 6 6 10 10 19 29 32 35 39 35 32 23 23 19 10 10 10 6
16 13 13 6 3 0 3 3 0 6 6 0 0 3 0 0 3 3 3 3 3 3 3 6 6 6 6 6 6 6 19 23 23 26 35 26 23 19 16 13 6 6 3
13 23 16 10 3 10 10 6 6 6 6 6 0 0 0 0 3 3 3 3 3 3 3 3 3 6 3 3 6 3 3 13 13 23 23 23 23 23 23 13 13 13 6
16 23 23 16 13 10 6 6 10 6 10 3 3 3 3 0 3 3 3 3 3 3 3 3 3 3 3 3 6 6 3 3 0 16 16 26 23 23 23 19 16 16 10
26 26 29 26 19 16 16 10 13 6 6 3 3 3 3 3 3 3 3 3 3 3 3 3 3 3 6 6 3 3 0 0 0 0 13 13 13 13 16 19 16 16 16
26 26 32 29 26 13 13 13 10 13 10 6 3 3 3 3 3 3 3 3 3 3 6 6 6 6 6 3 3 0 3 0 0 0 0 0 3 6 6 10 10 16 19
26 26 29 29 26 23 26 23 13 16 10 10 10 6 6 3 3 3 3 3 3 3 3 6 6 0 3 3 0 0 0 0 0 0 0 0 0 0 0 0 3 0 0
16 26 32 32 29 29 29 23 19 26 26 29 23 10 10 6 3 3 3 3 3 3 3 6 6 0 0 0 0 0 0 0 0 0 0 0 0 0 0 0 0 0 0
19 26 29 35 32 29 35 29 29 26 26 19 23 16 16 6 6 3 3 3 3 3 3 3 3 3 0 0 0 0 0 0 0 0 0 0 0 0 0 0 0 0 0
23 29 29 26 26 26 29 29 29 29 23 23 19 16 16 13 13 6 3 3 3 3 3 3 3 3 0 0 0 0 0 0 0 0 0 0 0 0 0 0 0 0 0
26 23 23 23 19 23 19 26 26 29 26 26 23 16 16 16 16 13 3 3 3 3 3 3 3 3 0 0 0 0 0 0 0 0 0 0 0 0 0 0 0 0 0
23 23 23 26 23 19 19 19 19 23 26 26 26 23 16 16 16 13 6 6 6 3 3 3 3 3 0 0 0 0 0 0 0 0 0 0 0 0 0 0 0 0 0
26 23 23 29 29 23 16 19 19 19 23 26 26 23 16 13 13 10 10 10 6 6 3 3 3 3 0 0 0 0 0 0 0 0 0 0 0 0 0 0 0 0 0
26 26 26 23 23 23 16 19 19 19 23 19 16 16 16 13 10 10 10 10 6 6 6 3 3 3 0 0 0 0 0 0 0 0 0 0 0 0 0 0 0 0 0
23 23 23 26 26 19 16 10 10 19 19 16 16 10 13 13 10 0 0 0 3 6 6 6 6 3 3 0 0 0 0 0 0 0 0 0 0 0 0 0 0 0 0
19 23 23 23 19 19 10 3 0 6 16 13 16 13 10 10 10 10 3 0 0 0 0 3 6 6 6 3 0 0 0 0 0 0 0 0 0 0 0 0 0 0 0
19 16 19 19 23 19 6 0 0 6 10 13 13 13 13 13 10 6 10 6 3 3 0 0 3 3 6 3 0 0 0 0 0 0 0 0 0 0 0 0 0 0 0
19 16 13 16 16 16 13 0 0 10 10 6 6 6 6 13 6 3 3 6 6 6 3 0 0 0 0 0 0 0 0 0 0 0 0 0 0 0 0 0 0 0 0
19 16 16 16 16 13 10 0 0 3 10 10 6 6 6 6 3 0 3 6 10 6 6 3 0 0 0 0 0 0 0 0 0 0 0 0 0 0 0 0 0 0 0

GEFSMA_con_cape1000_222.txt.gz
Probability
55 45 68 52 39 45 45 48 48 42 29 23 13 29 35 26 23 19 48 58 55 61 58 61 61 61 52 52 45 45 45 48 42 39 39 32 32 26 26 19 19 10 10
52 52 65 65 48 39 42 45 45 48 39 39 19 29 32 32 26 39 32 61 61 61 58 58 58 58 61 52 48 45 42 45 48 45 45 39 35 39 23 23 23 19 16
61 58 55 55 61 55 58 58 45 45 58 45 35 32 35 39 35 35 29 35 52 61 55 52 48 48 52 52 48 48 48 48 55 52 42 45 39 29 29 19 23 23 26
68 71 58 52 61 61 61 52 52 48 48 55 61 39 42 58 29 39 29 35 42 42 55 52 45 48 42 48 48 45 42 45 45 45 42 42 32 23 19 26 16 13 10
65 58 58 58 68 61 55 39 35 52 55 52 52 58 48 52 45 32 29 29 35 45 52 42 42 39 32 42 39 42 35 35 39 45 45 42 45 32 29 29 23 16 10
65 58 65 65 52 55 52 68 74 68 58 65 13 29 48 45 39 35 29 29 35 32 39 42 48 39 35 35 35 32 26 32 32 32 32 32 32 39 35 32 26 19 10
74 81 58 68 68 58 68 48 52 48 48 61 61 55 45 26 23 45 32 35 26 23 26 32 32 32 45 23 26 35 29 26 26 29 32 29 26 26 29 29 26 19 13
77 65 81 65 65 71 68 61 58 58 48 55 55 39 42 32 35 0 29 32 19 19 19 16 29 39 32 32 26 23 29 29 29 26 29 26 26 23 23 23 23 19 16
65 68 65 58 68 55 55 68 65 55 48 55 48 35 29 23 19 23 19 29 32 32 26 19 23 35 39 39 35 23 32 29 23 26 26 29 29 19 16 16 19 16 13
74 65 65 74 74 68 74 61 55 52 58 55 52 52 32 26 23 13 13 16 26 32 29 19 16 19 32 42 39 26 23 26 23 23 26 26 26 26 23 23 19 19 16
68 65 65 74 74 71 77 68 65 61 61 52 48 48 39 45 29 32 19 16 16 19 19 23 19 23 29 35 42 32 13 10 16 19 16 19 19 23 26 26 23 19 16
65 58 71 74 74 74 81 74 68 61 58 58 52 45 39 35 32 29 23 29 19 13 23 19 19 13 23 26 26 16 16 3 3 3 6 16 16 13 23 26 23 23 19
61 71 65 71 77 71 71 68 68 65 65 68 61 52 48 42 42 29 26 26 16 16 26 23 19 23 10 13 35 10 10 3 3 0 0 3 6 13 10 10 13 23 16
52 61 61 65 68 68 61 68 61 68 65 74 52 61 48 42 39 35 29 23 23 19 16 19 16 19 23 23 13 3 13 3 0 0 0 0 0 0 0 3 3 3 6
55 58 45 58 58 61 65 68 65 65 71 71 55 55 58 55 55 48 42 42 35 23 13 16 16 23 29 29 6 19 26 3 0 0 0 0 0 0 0 0 0 0 3
61 55 55 52 48 52 61 65 68 65 68 71 68 58 61 55 58 45 42 45 35 32 29 13 23 16 26 10 10 23 23 6 0 0 0 0 0 0 0 0 0 0 0
65 61 58 58 55 55 58 65 52 58 61 71 68 65 65 58 58 45 42 45 45 45 42 23 23 19 26 26 29 26 23 19 16 0 0 0 0 0 0 0 0 0 0
61 61 58 58 58 52 55 55 52 52 58 65 68 65 65 61 61 55 55 48 45 45 42 39 29 26 29 26 29 26 13 3 16 0 0 0 0 0 0 0 0 0 0
58 52 48 55 55 58 55 55 52 52 52 58 61 58 61 58 58 58 58 39 39 35 39 35 29 32 23 23 23 16 13 16 10 3 0 0 0 0 0 0 0 0 0
55 48 45 42 48 45 52 42 48 55 58 58 58 55 58 55 58 55 52 45 48 45 35 32 29 19 19 13 16 16 10 13 16 3 0 0 0 0 0 0 0 0 0
42 48 42 45 42 42 42 45 42 39 48 48 55 52 52 39 35 39 32 45 48 39 29 19 16 19 16 16 16 19 16 16 16 10 10 3 3 3 0 0 0 0 0
55 55 48 45 48 35 19 19 32 42 48 45 42 42 39 35 23 10 10 10 10 29 32 32 19 16 16 16 16 13 16 13 6 3 3 3 6 6 3 3 0 0 0
52 55 55 52 45 35 16 13 6 32 39 42 42 45 26 26 26 29 16 3 3 3 3 32 26 26 19 16 19 16 13 16 10 3 0 0 3 0 0 0 0 0 0
42 45 48 45 48 32 13 13 3 26 35 35 32 35 35 35 26 26 23 16 19 23 6 10 23 29 19 19 19 19 16 23 10 3 0 0 0 3 0 3 0 0 0
39 39 42 42 42 29 13 13 3 29 29 35 32 26 23 19 23 13 16 23 23 23 6 3 3 6 6 3 10 10 6 10 6 3 3 0 0 0 3 3 0 0 0
39 35 35 39 35 35 19 6 0 23 32 32 29 23 13 16 19 10 16 19 23 19 13 6 3 0 6 3 0 3 10 6 3 3 3 3 3 0 3 3 3 0 0

GEFSMA_con_cape1000_228.txt.gz
Probability
87 87 87 84 84 77 71 77 77 77 68 42 42 39 42 42 35 35 29 68 74 74 61 61 55 55 48 48 48 45 42 42 32 42 39 35 39 32 32 23 19 16 26
94 94 81 84 84 84 74 71 71 74 68 71 55 45 52 42 45 45 35 58 65 65 65 61 58 58 58 58 45 48 45 48 45 45 45 42 42 42 32 29 29 26 23
87 90 87 87 84 81 81 81 74 71 71 58 55 55 55 52 48 45 42 39 39 58 58 58 52 58 55 52 55 45 48 52 48 58 55 52 45 32 29 29 19 23 23
77 94 90 84 81 84 81 77 74 81 68 68 65 58 48 65 48 55 58 48 39 32 42 58 61 55 52 52 48 45 48 42 48 48 39 39 45 39 26 23 16 16 6
68 74 81 90 84 87 84 71 74 74 68 65 55 52 52 55 48 32 39 35 45 32 29 35 52 48 45 42 42 45 42 42 42 42 39 32 29 32 19 23 19 16 6
71 71 77 84 77 81 90 84 81 77 71 71 29 26 48 52 58 48 35 35 39 23 29 23 29 32 42 42 42 35 32 35 35 29 26 23 26 26 26 23 16 16 10
81 74 74 87 81 84 77 77 74 81 68 71 55 48 45 48 45 48 45 42 32 35 26 26 29 23 23 35 39 39 32 26 32 29 29 26 29 23 23 19 19 16 6
81 71 84 71 81 84 81 81 77 77 77 71 68 45 39 42 35 23 42 45 26 42 35 19 35 35 23 16 16 29 35 32 29 32 29 26 23 26 23 23 19 19 19
81 87 84 81 77 84 90 87 84 81 68 71 68 58 42 35 39 42 29 29 35 42 45 39 35 35 26 26 19 19 32 32 35 32 35 29 26 26 23 23 19 19 19
81 81 84 81 87 84 87 81 84 74 68 65 61 55 61 55 48 39 29 32 32 35 35 29 19 29 35 29 26 23 19 29 32 32 32 29 29 26 23 19 26 26 23
74 71 74 81 84 84 84 84 81 84 81 61 65 55 55 52 48 48 35 35 32 39 32 32 29 29 35 32 32 29 23 19 23 32 32 29 35 32 29 26 23 23 23
74 68 74 87 77 81 84 84 87 87 90 84 74 68 61 55 48 35 23 32 26 32 35 32 32 29 35 32 39 32 23 16 13 10 23 19 23 29 26 26 19 29 23
74 81 71 77 81 84 81 84 87 84 87 90 87 77 74 55 55 42 39 35 26 35 39 39 29 32 29 32 35 26 26 6 3 3 6 6 13 16 16 16 16 19 23
68 74 74 77 74 74 71 81 84 84 84 81 71 74 74 52 55 45 42 45 29 35 42 39 39 32 32 35 29 6 10 3 3 3 3 3 3 6 10 13 13 10 10
71 68 68 71 74 71 71 71 77 77 81 74 74 77 74 74 65 55 52 52 29 26 29 32 35 39 35 35 6 13 29 10 3 0 0 3 3 0 0 0 0 0 0
71 65 65 65 61 68 68 68 68 68 74 71 68 74 65 65 65 61 55 48 52 42 35 45 35 39 39 29 13 26 35 3 0 0 0 0 0 0 0 0 0 0 0
65 61 68 65 68 68 68 68 68 65 65 65 65 61 58 55 65 58 61 52 48 52 45 42 52 45 42 39 29 32 26 19 3 0 0 0 0 0 0 0 0 0 0
65 65 65 61 68 68 68 68 65 61 55 58 55 58 58 52 58 61 58 61 52 52 45 45 52 52 45 42 32 32 26 19 19 3 0 0 0 0 0 0 0 0 0
65 58 58 58 55 52 55 65 55 55 55 55 55 58 61 65 55 55 52 52 48 35 48 45 45 39 39 29 29 23 23 19 19 6 0 0 0 0 0 0 0 0 0
65 61 58 55 55 48 48 52 55 48 45 42 42 48 48 52 55 52 52 52 42 45 42 45 45 42 42 39 26 23 19 19 13 6 3 0 0 0 0 0 0 0 0
65 65 58 58 58 48 45 48 48 42 45 45 42 42 39 35 29 32 35 42 52 45 42 26 32 35 39 32 23 16 16 19 13 10 10 3 0 0 0 0 0 0 0
65 61 58 58 58 45 32 35 39 35 39 42 39 45 45 29 19 19 16 19 23 32 32 26 23 26 32 32 23 10 13 6 10 16 6 3 3 0 0 0 0 0 0
55 52 48 52 55 39 23 19 19 35 35 39 42 45 42 29 19 26 19 6 6 3 10 19 26 29 29 32 26 16 13 6 10 3 3 3 0 0 3 0 0 0 0
55 55 55 48 42 29 19 10 3 32 32 39 39 45 45 39 29 26 19 19 19 19 16 6 16 16 19 26 23 19 13 16 19 6 6 3 0 0 0 0 0 0 0
45 45 48 45 39 29 19 6 3 26 35 39 39 32 35 39 19 13 19 19 19 23 13 6 6 6 6 6 13 13 16 10 6 3 3 3 3 3 3 6 3 0 0
42 42 42 42 39 32 23 10 3 19 35 32 29 32 19 23 16 13 16 19 19 19 13 10 3 3 3 3 0 10 13 6 3 10 3 3 0 3 3 3 3 0 0

GEFSMA_con_cape1000_234.txt.gz
Probability
3 3 0 6 6 3 3 3 3 3 3 3 3 3 3 3 0 0 10 71 81 77 77 71 58 52 52 52 52 45 52 48 39 39 35 39 39 35 26 23 23 23 29
6 6 6 6 6 3 3 3 3 3 3 3 0 0 0 0 0 3 6 26 81 81 74 71 58 55 48 52 48 52 48 45 42 39 35 35 32 32 29 29 23 16 19
6 6 13 6 10 3 6 3 6 6 3 3 0 0 3 0 3 0 3 3 32 68 68 65 61 61 58 52 55 48 58 55 52 48 42 42 35 32 35 32 29 29 23
13 10 6 6 6 13 6 3 3 3 3 3 0 0 3 3 3 0 0 3 6 10 42 58 55 52 58 55 52 42 45 52 48 48 39 32 29 29 29 29 23 23 26
19 16 10 3 10 10 6 10 3 3 6 3 3 3 3 0 0 0 0 0 0 3 3 19 55 55 52 48 48 45 42 45 42 35 39 35 32 23 23 16 16 16 13
23 16 13 16 16 19 10 3 6 3 3 0 6 6 0 0 0 0 0 0 0 3 0 10 16 32 52 42 39 39 35 35 35 35 29 26 29 32 32 19 13 6 6
26 19 19 19 16 13 16 10 10 10 3 3 0 0 0 0 0 0 0 0 0 0 0 3 6 3 13 35 32 39 35 35 35 35 26 32 29 29 26 26 16 6 6
26 26 23 23 23 13 10 10 10 10 10 3 0 0 0 0 0 0 0 0 0 0 0 0 0 0 0 6 13 35 32 32 32 32 35 32 32 29 26 26 23 16 10
32 26 23 23 19 16 16 16 13 10 10 6 0 0 0 0 0 0 0 0 0 0 0 0 0 3 0 0 3 13 32 35 32 32 32 32 39 32 29 29 29 26 16
35 29 26 19 16 19 16 16 13 10 6 3 0 0 0 0 0 0 0 0 0 0 0 0 0 0 0 3 3 10 19 26 32 29 35 32 29 32 26 26 23 29 23
32 35 26 23 23 16 19 19 23 10 3 3 3 0 3 0 0 0 0 0 0 0 0 0 0 0 0 0 3 6 10 13 19 32 39 32 29 26 29 29 29 29 26
29 29 32 23 19 16 19 26 19 10 3 3 6 3 0 0 0 0 0 0 3 3 0 0 0 0 0 0 0 6 10 10 10 13 13 19 23 26 26 29 26 26 26
29 29 29 26 23 26 26 26 23 13 10 10 3 3 3 3 3 3 3 3 3 3 0 0 0 0 0 0 0 6 6 6 6 3 6 6 10 19 19 23 29 29 29
35 32 29 29 29 39 39 35 29 23 16 10 10 10 6 3 3 6 3 3 3 3 0 0 0 0 0 0 0 0 6 6 3 0 0 3 6 6 6 6 10 10 10
35 35 35 32 32 39 42 42 35 32 29 23 13 10 10 10 10 10 6 3 3 3 3 0 0 0 0 0 0 0 0 0 0 0 0 0 0 3 3 6 10 6 6
29 32 32 35 39 32 32 32 29 29 29 23 13 13 10 10 6 6 6 3 3 3 3 3 0 3 3 6 0 0 0 0 0 0 0 0 0 0 0 0 3 3 3
26 32 35 35 29 32 32 32 29 23 26 29 23 10 6 3 6 6 6 6 3 3 3 6 3 3 6 3 0 0 0 0 0 0 0 0 0 0 0 0 0 0 0
26 29 32 26 26 26 26 23 19 23 26 19 23 13 13 10 10 10 10 10 6 3 3 3 3 6 6 3 3 3 0 0 0 0 0 0 0 0 0 0 0 0 0
32 32 29 26 29 26 19 23 23 23 23 23 19 19 10 16 13 10 10 10 10 10 6 6 3 3 3 6 3 3 3 3 0 0 0 0 0 0 0 0 0 0 0
32 35 32 29 26 26 19 19 19 19 16 19 19 19 19 13 16 13 10 10 13 13 6 3 3 3 3 3 3 3 3 3 3 3 3 0 0 0 0 0 0 0 0
39 35 35 26 26 23 23 23 19 19 19 19 19 19 19 16 13 13 16 13 13 6 6 6 6 6 3 3 3 3 6 3 3 3 3 0 0 0 0 0 0 0 0
32 32 35 29 23 26 26 19 16 16 16 16 16 19 16 16 16 10 10 10 6 6 6 6 6 6 6 3 3 3 3 3 3 0 0 0 0 0 0 0 0 0 0
35 32 32 29 26 23 23 10 6 10 10 13 13 13 13 19 16 16 10 3 3 0 6 6 6 6 6 3 3 3 3 3 3 0 0 0 0 0 0 0 0 0 0
29 26 26 29 26 23 13 6 6 3 10 10 13 10 10 10 13 13 10 10 10 10 6 3 6 6 3 3 0 0 0 0 0 0 0 0 0 0 0 0 0 0 0
26 23 23 16 16 13 13 6 3 6 6 10 10 10 10 13 10 0 10 10 10 10 3 0 0 3 0 0 0 0 0 0 0 0 0 0 0 0 0 0 0 0 0
23 16 16 10 10 10 13 10 6 6 6 6 6 6 3 6 6 0 0 10 10 10 6 3 0 0 0 0 0 0 0 0 0 0 0 0 0 0 0 0 0 0 0